Race Results for
Joe Martin Stage Race - NRC
Fayetteville, AR
(Event Information)
Road Race on 04/27/2013

Note: Ranking points are NOT upgrade points. An explanation of ranking points can be found here.


Men - Pro/Cat 1 - Nrc Stage

 Place Points NameCity, StateTime USAC #BibTeam
1108.50Robin Carpenter (1 - Pro)   Philadelphia, PA00:00:00 229481  82 UCI CT: Hincapie Sportswear Development Team*
2109.07Joseph Lewis   Greenville, SC00:00:00 386346  84 UCI CT: Hincapie Sportswear Development Team*
3109.64Joey Rosskopf (2 - Pro)   Athens, GA00:00:00 223318  86 UCI CT: Hincapie Sportswear Development Team*
4110.21Michael Woods   00:00:00 385319  146 GARNEAU-QUEBECOR
5110.78Jesse Anthony (3 - Pro)   Newbury Park, CA00:00:00 154883  11 Optum p/b Kelly Benefit Strate
6111.35Francesco Mancebo (4 - Pro)   Dahlonega, GA00:00:00 334418  5hr Energy Presented by Kenda
7111.92Benjamin Jacques-Maynes (5 - Pro)   Corralitos, CA00:00:00 23057  55 Jamis Hagens Berman p/b Sutter
8112.49Julian Kyer (6 - Pro)   Boulder Co00:00:00 220448  23 BISSELL Pro Cycling
9113.06Nic Hamilton   00:00:00 397982  41 Jelly Belly p/b Kenda
10113.63Jeremy Vennell (1 - Cat1)   Santarosa, CA00:00:00 304747  28 BISSELL Pro Cycling
11114.20Morgan Schmitt (7 - Pro)   Woodinville, WA00:00:00 189118  47 Jelly Belly p/b Kenda
12114.77Andres Diaz Corrales   Boise, ID00:00:00 334670  32 ELBOWZ RACING p/b Boneshaker
13115.34Chad Haga (8 - Pro)   Colorado Springs, CO00:00:00 248479  13 Optum p/b Kelly Benefit Strate
14115.91Nathan English (9 - Pro)   Berkeley, CA00:00:00 258309  5hr Energy Presented by Kenda
15116.48Oscar Clark (10 - Pro)   Athens, GA00:00:00 221975  83 Hincapie Sportswear Developeme
16117.05Heath Blackgrove (2 - Cat1)   Austin, TX00:00:05 366920  31 ELBOWZ RACING p/b Boneshaker
17117.62Eric Marcotte (3 - Cat1)   Scottsdale, AZ00:00:13 212698  34 ELBOWZ RACING p/b Boneshaker
18118.19Travis McCabe (4 - Cat1)   Tucson, AZ00:00:22 268330  35 ELBOWZ RACING p/b Boneshaker
19118.76Frank Pipp (11 - Pro)   Longmont, CO00:00:22 164362  26 BISSELL Pro Cycling
20119.33Ben Chaddock   Walla Walla, WA00:00:22 261002  681 Team SmartStop-Mountain Khakis
21119.90Alder Martz (12 - Pro)   Charlotte Nc00:00:22 202082  85 Hincapie Sportswear Developeme
22120.47Charles Huff (13 - Pro)   Springfield, MO00:00:22 132539  42 Jelly Belly p/b Kenda
23121.04Mac Cassin (5 - Cat1)   Denver, CO00:00:22 287030  151 Gateway Harley-Davidson/Trek
24121.61Jonathan Atwell (6 - Cat1)   Bloomington, IN00:00:22 212166  181 Panther p/b Bakehouse Granola
25122.18Jos Chalmers (7 - Cat1)   Indian Harbour Beach, FL00:00:22 271372  152 Gateway Harley-Davidson/Trek
26Pierrick Naud   00:00:22  145 GARNEAU-QUEBECOR
27123.32Weston Luzadder (8 - Cat1)   Carmel, IN00:00:22 240464  114 BISSELL-ABG-GIANT
28123.89Anton Varabei   00:00:22 356904  173 Jet Fuel Coffee/Norco Bicycles
29124.46Curtis Winsor (14 - Pro)   Charlottesville, VA00:00:22 187500  688 Team SmartStop-Mountain Khakis
30125.03Blair Turner (15 - Pro)   Waxhaw, NC00:00:22 261080  87 Hincapie Sportswear Developeme
31125.60Brandon Feehery (9 - Cat1)   Homewood, IL00:00:22 193035  93 Astelias Oncology
32126.17Nicolai Brochner   Indianapolis, IN00:00:22 394630  111 BISSELL-ABG-GIANT
33126.74Ricardo Van Der Velde (16 - Pro)   San Marcos, CA00:00:22 394632  48 Jelly Belly p/b Kenda
34127.31Chris Stastny (10 - Cat1)   Vacaville, CA00:00:22 249743  75 Hagens Berman Cycling
35127.88Ian Crane (11 - Cat1)   Seattle, WA00:00:22 184284  71 Hagens Berman Cycling
36128.45Demis Aleman (17 - Pro)   Northvale, NJ00:00:22 305654  51 Jamis Hagens Berman p/b Sutter
37129.02Graham Dewart (12 - Cat1)   Zionsville, IN00:00:22 241878  112 BISSELL-ABG-GIANT
38129.59Robert Sweeting (18 - Pro)   Asheville, NC00:00:22 205722  5hr Energy Presented by Kenda
39130.16Willy Zellmer (13 - Cat1)   Missoula, MT00:00:22 225407  154 Gateway Harley-Davidson/Trek
40130.73Jim Stemper (19 - Pro)   Wauwatosa, WI00:00:22 230799  5hr Energy Presented by Kenda
41131.30Chris Gruber   Woodbury, NJ00:00:22 187913  123 Champion System-Stans NoTubes
42131.87Christiaan Kriek   Temecula, CA00:00:22 367187  43 Jelly Belly p/b Kenda
43132.44Max Jenkins (20 - Pro)   Citrus Heights, CA00:00:22 195652  5hr Energy Presented by Kenda
44133.01Mat Stephens (14 - Cat1)   Dallas, TX00:00:22 178970  37 ELBOWZ RACING p/b Boneshaker
45133.58Shane Braley (15 - Cat1)   Stuart, FL00:00:22 139426  121 Champion System-Stans NoTubes
46134.15Cortlan Brown (16 - Cat1)   Bountiful, UT00:00:22 262949  92 Astelias Oncology
47134.72Taylor Shelden (21 - Pro)   Louisville, CO00:00:22 211114  5hr Energy Presented by Kenda
48135.29Cruise Bogedin   Rochester Mi00:00:22 254352  131 Cleveland Clinic Sports Health
49135.86Zachary Hughes   Newburgh, IN00:00:22 238479  143 GARNEAU-QUEBECOR
50136.43Shawn Gravois (17 - Cat1)   Sarasota, FL00:00:22 230009  692 United Healthcare of Georgia
51137.00Andrew Dahlheim (22 - Pro)   Dallas, TX00:00:22 188572  22 BISSELL Pro Cycling
52137.57Tony Hall (18 - Cat1)   Brooklyn, NY00:00:22 257024  125 Champion System-Stans NoTubes
53Juan Jose Haedo   00:00:22  54 Jamis Hagens Berman p/b Sutter
54138.71Steve Fisher (19 - Cat1)   Seattle, WA00:00:22 204225  72 Hagens Berman Cycling
55Matt Green   00:00:22  94 Astelias Oncology
56139.85Conor Mullervy (20 - Cat1)   Boulder, CO00:00:22 237726  126 Champion System-Stans NoTubes
57140.42Clay Murfet (21 - Cat1)   Tasmania00:00:22 247737  684 Team SmartStop-Mountain Khakis
58140.99Ryan Knapp (22 - Cat1)   Columbus, IN00:00:22 161263  183 Panther p/b Bakehouse Granola
59141.56Jonathan Freter (23 - Cat1)   Columbus, OH00:00:22 266654  182 Panther p/b Bakehouse Granola
60142.13Jacob Rytlewski (24 - Cat1)   Brownsburg, IN00:00:22 133501  97 Astelias Oncology
61142.70Isaiah Newkirk (25 - Cat1)   St.louis, MO00:00:22 282064  153 Gateway Harley-Davidson/Trek
62143.27Michael Weicht (26 - Cat1)   Tustin, CA00:00:22 377305  68 CashCall Mortgage
63143.84Andrew Seitz (27 - Cat1)   Pittsburgh, PA00:00:22 291272  184 Panther p/b Bakehouse Granola
64144.41David Santos (28 - Cat1)   El Cajon, CA00:00:22 278526  66 CashCall Mortgage
65144.98Luis Davila   San Marcos, CA00:00:22 397968  44 Jelly Belly p/b Kenda
66145.55Cole House (29 - Cat1)   Oneida Wi00:00:22 183112  63 CashCall Mortgage
67146.12Zack Noonan (30 - Cat1)   Kutztown, PA00:00:22 249618  102 BikeReg.com/Cannondale Elite
68146.69Alex Vanias (31 - Cat1)   Leroy, MI00:00:22 291766  115 BISSELL-ABG-GIANT
69147.26Sean Sullivan (32 - Cat1)   Boulder, CO00:00:22 367520  38 ELBOWZ RACING p/b Boneshaker
70147.83Luis Alberto Romero Amaran (23 - Pro)   Albuquerque, NM00:00:22 288135  52 Jamis Hagens Berman p/b Sutter
71148.40Matthew Cooke (33 - Cat1)   Boulder, CO00:00:22 190900  122 Champion System-Stans NoTubes
72148.97Sean McCarthy (34 - Cat1)   Easthampton, MA00:00:22 278956  124 Champion System-Stans NoTubes
73149.54Colby Wait-Molyneux (35 - Cat1)   Vancouver, WA00:00:22 293479  76 Hagens Berman Cycling
74150.11Winston David (36 - Cat1)   Greenville, SC00:00:22 194743  691 United Healthcare of Georgia
75150.68Chris Winn (37 - Cat1)   Lakewood, CO00:00:22 292547  163 Horizon Organic/Panache Elite
76151.25Andy Scarano (38 - Cat1)   Athens, GA00:00:22 178109  693 United Healthcare of Georgia
77151.82Andy Baker (24 - Pro)   Easley, SC00:00:22 193830  81 Hincapie Sportswear Developeme
78152.39Phil Mooney (25 - Pro)   San Rafael , CA00:00:22 206962  57 Jamis Hagens Berman p/b Sutter
79152.96Michael Chauner (26 - Pro)   West Chester, PA00:00:22 178966  141 GARNEAU-QUEBECOR
80153.53Gab Varela (27 - Pro)   Coeur D' Alene, ID00:00:22 249909  58 Jamis Hagens Berman p/b Sutter
81154.10Fabrizio Von Nacher (39 - Cat1)   Tustin, CA00:00:22 394218  67 CashCall Mortgage
82154.67Austin Allison (40 - Cat1)   Saint Louis, MO00:00:22 224219  161 Horizon Organic/Panache Elite
83155.24Tom Soladay (28 - Pro)   Glendale, CA00:00:22 220775  15 Optum p/b Kelly Benefit Strate
84155.81Mike Friedman (29 - Pro)   Golden, CO00:00:22 135475  12 Optum p/b Kelly Benefit Strate
85156.38Bruno Langlois   00:00:22 400671  144 GARNEAU-QUEBECOR
86156.95Ruben Companioni (30 - Pro)   Miami00:00:22 381975  53 Jamis Hagens Berman p/b Sutter
87157.52Coulton Hartrich (41 - Cat1)   Juno Beach, FL00:00:22 286536  95 Astelias Oncology
88158.09Ken Hanson (31 - Pro)   San Diego, CA00:00:22 194969  14 Optum p/b Kelly Benefit Strate
89158.66Tom Zirbel (32 - Pro)   Boulder, CO00:00:22 209308  17 Optum p/b Kelly Benefit Strate
90159.23Jimmy Schurman (42 - Cat1)   Deerfield Beach, FL00:00:22 284479  128 Champion System-Stans NoTubes
91159.80Josh Yeaton (43 - Cat1)   Boulder, CO00:00:22 233175  164 Horizon Organic/Panache Elite
92160.37Tommy Nankervis   Melbourne Australia00:00:22 341438  25 BISSELL Pro Cycling
93160.94David Williams (33 - Pro)   Grand Rapids, MI00:00:22 225765  5hr Energy Presented by Kenda
94161.51Jason McCartney (34 - Pro)   Coralville, IA00:00:22 23245  24 BISSELL Pro Cycling
95162.08Sean Mazich (35 - Pro)   Yuma, AZ00:00:22 196405  45 Jelly Belly p/b Kenda
96162.65Shawn Milne (36 - Pro)   Beverly, MA00:00:22 147512  5hr Energy Presented by Kenda
97163.22Joseph Schmalz (44 - Cat1)   Lawrence, KS00:00:22 197714  36 ELBOWZ RACING p/b Boneshaker
98163.79Daniel Patten (37 - Pro)   Winston Salem, NC00:00:22 396011  685 Team SmartStop-Mountain Khakis
99164.36Logan Loader (45 - Cat1)   Felton, CA00:00:46 198542  64 CashCall Mortgage
100164.93Logan Hutchings (46 - Cat1)   Austin, TX00:00:47 381170  33 ELBOWZ RACING p/b Boneshaker
101165.50Adam Farabaugh (38 - Pro)   Owego Ny00:00:50 238217  142 GARNEAU-QUEBECOR
102166.07Christopher Uberti (39 - Pro)   Greenville, SC00:01:29 238311  687 Team SmartStop-Mountain Khakis
103166.64Carson Miller (40 - Pro)   Seattle, WA00:07:12 203931  56 Jamis Hagens Berman p/b Sutter
104167.21Ricky Gargiulo (47 - Cat1)   Summit, NJ00:09:36 231560  101 BikeReg.com/Cannondale Elite
105167.78Jackie Simes (41 - Pro)   Alburtis, PA00:16:33 150549  686 Team SmartStop-Mountain Khakis
106168.35Travis Livermon (42 - Pro)   Lewisville, NC00:16:33 161583  682 Team SmartStop-Mountain Khakis
107168.92Michael Torckler (48 - Cat1)   Santa Rosa, CA00:16:33 399728  27 BISSELL Pro Cycling
108169.49Eric Young (43 - Pro)   Boulder, CO00:23:38 279095  16 Optum p/b Kelly Benefit Strate
109170.06Luis Zamudio (49 - Cat1)   Chula Vista, CA00:23:38 204879  174 Jet Fuel Coffee/Norco Bicycles
110Travis Samuel   00:24:53  172 Jet Fuel Coffee/Norco Bicycles
111171.20Max Korus (50 - Cat1)   Woodside, CA00:24:53 290610  96 Astelias Oncology
112171.77Martin Vecchio (51 - Cat1)   Detroit, MI00:24:53 289623  185 Panther p/b Bakehouse Granola
113172.34Brian McCulloch (52 - Cat1)   Yucaipa, CA00:24:53 169774  62 CashCall Mortgage
114172.91Ben Zawacki (44 - Pro)   Greenville, SC00:24:53 144633  88 Hincapie Sportswear Developeme
115173.48Alex Wieseler (53 - Cat1)   Indianapolis, IN00:24:53 207324  116 BISSELL-ABG-GIANT
116174.05David Fleischhauer (54 - Cat1)   Seattle, WA00:24:53 176226  73 Hagens Berman Cycling
117174.62Chris Monteleone (45 - Pro)   Winston Salem, NC00:32:31 180410  683 Team SmartStop-Mountain Khakis
118175.19Yuri Hrycaj   00:32:31 400215  171 Jet Fuel Coffee/Norco Bicycles
119175.76Ryan Mele (55 - Cat1)   Washington, PA00:32:31 158772  677 Stan's NoTubes p/b Proferrin
120176.33Jake Duehring (56 - Cat1)   Irvine, CA00:32:31 288548  162 Horizon Organic/Panache Elite
121176.90Jacob Mueller (57 - Cat1)   Fish Creek, WI00:32:31 248510  678 Stan's NoTubes p/b Proferrin
122177.47Ryan Aitcheson   Milwaukee, WI00:32:31 354334  91 Astelias Oncology
123178.04Jake Wells (58 - Cat1)   Avon, CO00:32:31 191242  679 Stan's NoTubes p/b Proferrin
DNSMichael Olheiser (Cat1)   Huntsville, AL 133375  65 CashCall Mortgage
DNFMike Sherer (Pro)   Boulder, CO 232977  18 Optum p/b Kelly Benefit Strate
DNFChris Wingfield (Cat1)   Bainbridge Island, WA 247269  77 Hagens Berman Cycling
DNFJerome Townsend (Cat1)   Princeton, MA 196503  103 BikeReg.com/Cannondale Elite
DNFMatt Brandt (Cat1)   St Charles, MO 197984  132 Cleveland Clinic Sports Health
DNFParker Kyzer (Cat1)   Spartanburg, SC 263324  133 Cleveland Clinic Sports Health
DNFLevi Baker (Cat1)   Fayetteville, AR 233873  191 Park Place Dealersips/ENDURAFU
DNFRobert Cummings (Cat1)   Rose Hill, KS 276726  192 Park Place Dealersips/ENDURAFU
DNFJosh Estes (Cat1)   Fayetteville, AR 290785  193 Park Place Dealersips/ENDURAFU
DNFAugusto Sanchez   Fort Lee, NJ 390002  194 Park Place Dealersips/ENDURAFU
DNFJohn Loehner (Cat1)   New York, NY 47769  676 Stan's NoTubes p/b Proferrin

Men - Cat 1/2

 Place Points NameCity, StateTime USAC #BibTeam
1154.21Ryan Shean (1 - Cat1)   Indianapolis, IN00:00:00 290397  738 Team Upland Brewing
2156.66Zack Allison (2 - Cat1)   Arlington Va00:00:00 211435  798 Think Finance p/b Tr
3159.11Austin Vinton (3 - Cat1)   Springfield, MO00:00:02 311693  797 Think Finance p/b Tr
4161.56Eric Haynes (4 - Cat1)   Springfield, MO00:00:05 292442  758 Mercy Kuat
5164.01Kyle Perry (5 - Cat1)   Indianapolis, IN00:03:36 240005  794 Team Upland Brewing
6166.46Nicholas Boulle (6 - Cat1)   Dallas, TX00:03:36 291724  732 Elbowz Racing p/b Bo
7168.91Winfield Gibson (7 - Cat1)   Tulsa00:03:36 150872  881 Tulsa Tough p/b ICEd
8171.36Tony Baca (8 - Cat1)   Chihuahua00:03:36 331782  726 DNA Racing
9173.81Tristan Uhl (9 - Cat1)   Austin, TX00:03:36 168160  701 787 Racing
10176.26Dennis Ramirez   Clovis, CA00:03:36 204890  777 Sabaneta
11178.71Colton Jarisch (10 - Cat1)   Austin, TX00:03:36 271716  876 Think Finance p/b Tr
12181.16Brian Lehman (1 - Cat2)   Denver, CO00:03:36 298376  734 Falcon Networks - De
13183.61Nick Coil (11 - Cat1)   Prairie Village, KS00:03:36 195267  800 Think Finance p/b Tr
14186.06Griffin Easter (2 - Cat2)   Upland, CA00:03:36 282590  739 Gateway Harley-David
15188.51Taylor Warren (3 - Cat2)   Loveland, CO00:03:36 287780  782 Sonic Boom Racing
16190.96Marcos Lazzarotto (12 - Cat1)   Christiansburg, VA00:03:36 292813  751 Integrated Sports Me
17193.41Brian Firle (4 - Cat2)   Boulder, CO00:03:36 282337  733 Falcon Networks - De
18195.86Caleb Fuchs (13 - Cat1)   Hico, TX00:03:36 291325  875 Think Finance p/b Tr
19198.31Matt Gosling (5 - Cat2)   Dallas, TX00:03:36 303626  788 Team Party Time
20200.76Jacob White (14 - Cat1)   Pauls Valley, OK00:03:36 272180  884 Tulsa Tough p/b ICEd
21203.21Alex Voitik (6 - Cat2)   Champaign, IL00:03:36 184412  781 Sammy's Bikes
22205.66Kevin Henschel (7 - Cat2)   Columbus, OH00:03:36 308035  710 Cleveland Clinic Spo
23208.11Andrew Coe (8 - Cat2)   Mission, KS00:03:36 244716  717 Cycle City Racing
24210.56Jacob Lasley (15 - Cat1)   Broken Arrow, OK00:03:36 66580  792 Team Soundpony
25213.01Tim Jenkinson (16 - Cat1)   Mars Hill, NC00:03:36 325110  711 Cleveland Clinic Spo
26215.46Amos Harvey (9 - Cat2)   Cumming, GA00:03:36 298681  775 Round Here Racing
27217.91Michael Stone (17 - Cat1)   Monroe, GA00:03:36 258441  715 CRCA/Lupus Racing Te
28220.36Joshua Leibowitz (10 - Cat2)   St. Louis, MO00:03:36 292415  760 Michelob Ultra - Big
29222.81Josh Johnson (18 - Cat1)   Cape Girardeau, MO00:03:36 298124  740 Gateway Harley-David
30225.26Brian West (19 - Cat1)   Kansas City Mo00:03:36 171534  723 Cycle City Racing
31227.71Cameron Rex (20 - Cat1)   Shawnee, KS00:03:36 243878  742 Gateway Harley-David
32230.16Eric Hill (21 - Cat1)   Hartland, WI00:03:36 334878  754 LAPT-Wilde Subaru
33232.61Elkin David Arteaga (22 - Cat1)   Duncanville, TX00:03:36 276550  724 Dallas Bike Works
34235.06Jason Waddell (23 - Cat1)   Oklahoma City, OK00:03:36 110309  885 Tulsa Tough p/b ICEd
35237.51Kyle Anderson (11 - Cat2)   Wichita Falls, TX00:03:36 238136  765 Park Place Dealershi
36239.96Steven Perezluha (24 - Cat1)   Longwood, FL00:03:36 311519  704 AG Bicycles / Gutten
37242.41Ryan Gabriel (12 - Cat2)   Tulsa, OK00:04:07 286105  880 Tulsa Tough p/b ICEd
38244.86David Neidinger (13 - Cat2)   Kansas City, MO00:10:04 272500  721 Cycle City Racing
39247.31Justin Leopold (14 - Cat2)   Independence, MO00:10:04 299868  719 Cycle City Racing
40249.76Miguel Bryon (25 - Cat1)   Miami, FL00:10:04 290219  708 Blue Star Boom Devel
41252.21Brandon Melott (15 - Cat2)   Warr Acres, OK00:10:04 260604  783 Soundpony
42254.66Jake Schneidewind (16 - Cat2)   Lowell, AR00:10:04 340382  890 Fayetteville Wheelme
43257.11Brice Jones (26 - Cat1)   Fort Smith, AR00:10:04 18152  887 Walmart/Baugh Financ
44259.56Tim Srenaski (27 - Cat1)   Boulder, CO00:10:04 208544  735 Falcon Networks - De
45262.01Chris Moore (28 - Cat1)   Woodridge, IL00:10:04 277388  778 Sammy's Bikes
46264.46John Hayes (29 - Cat1)   Cleveland, TN00:10:04 176666  763 None
47266.91Daniel Rudalev (17 - Cat2)   Alpharetta, GA00:14:52 277981  713 CRCA/Lupus Racing te
48269.36Jan Kolar (30 - Cat1)   Anniston, AL00:14:56 274936  712 CRCA/Lupus Racing Te
49271.81Zachary Bergh (31 - Cat1)   Dripping Springs, TX00:14:56 254872  705 Astellas Oncology
50274.26Jack Funk (18 - Cat2)   Topeka, KS00:21:36 221084  743 GP Velotek
51276.71Maxwell Anderson (32 - Cat1)   Hartford, WI00:21:36 178840  752 LAPT-Wilde Subaru
52279.16Michael Lalla (33 - Cat1)   Coon Rapids Mn, MN00:21:36 201623  764 PACC/WATT POSSE
53281.61John Robertson (19 - Cat2)   Bentonville, AR00:22:28 270177  888 Walmart/Baugh Financ
54284.06Dustin Morici (34 - Cat1)   Saint Charles, IL00:22:28 288716  780 Sammy's Bikes
55286.51Chad Hodges (20 - Cat2)   Moore, OK00:22:28 175928  730 DNA Racing
56288.96Ian Silovsky (21 - Cat2)   Topeka, KS00:22:28 296609  744 GP Velotek
57291.41Zack Lavergne (22 - Cat2)   Littlerock, AR00:22:28 309923  766 Park Place Dealershi
58293.86Chris Lessing (23 - Cat2)   Alpharetta, GA00:22:28 274824  774 Round Here Racing
59296.31Nathaniel Beams (35 - Cat1)   Dallas, TX00:25:12 259780  799 Think Finance p/b Tr
60298.76Levon Kalemkiarian (36 - Cat1)   Stillwater, MN00:25:31 243156  773 Revolution Cycle - T
61301.21Justin Stanley (24 - Cat2)   Midlothian, TX00:28:57 386614  725 Dallas Bike Works
62303.66Michael Jenich (25 - Cat2)   Shorewood, WI00:28:58 260373  755 LAPT-Wilde Subaru
63306.11Joe Fox (26 - Cat2)   Parkville, MO00:28:58 233914  718 Cycle City Racing
64308.56Grant Najera (27 - Cat2)   Tulsa, OK00:28:58 331558  882 Tulsa Tough p/b ICEd
65311.01Jason Smitherman (28 - Cat2)   Atlanta, GA00:28:58 306781  776 Round Here Racing
66313.46Garrick Valverde (29 - Cat2)   Lawrence, KS00:28:58 210225  746 GP Velotek
67315.91Zach Reed (37 - Cat1)   Edwardsville, IL00:32:28 29400  770 Qdoba p/b Bushwhacke
68318.36Frank Cusimano (30 - Cat2)   Richardson, TX00:32:28 301599  729 DNA Racing
69320.81Andrew Lyles (31 - Cat2)   Kansas City, MO00:32:35 331008  720 Cycle City Racing
70323.26Igor Rudalev (38 - Cat1)   Alpharetta, GA00:32:45 261409  714 CRCA/Lupus Racing Te
DNFAndy Swims (Cat2)   Elburn, IL 215914  703 ABD Cycling
DNFAndrew Buntz (Cat1)   West Des Moines 291573  706 Astellas Oncology
DNFBenjamin Woodbury (Cat2)   Kansas City, MO 273469  716 Cycle City Racing
DNFEvan Bybee (Cat1)   Oklahoma City, OK 226469  728 DNA Racing
DNFBenn Stover (Cat2)   Lawrence, KS 219998  745 GP Velotek
DNFKenneth Day (Cat1)   Houston, TX 282890  747 GS Tenzing
DNFWilliam Fiser (Cat2)   Houston, TX 258668  748 GS Tenzing
DNFBrian Jones (Cat1)   Houston, TX 254260  749 GS Tenzing
DNFAndrew Hammond (Cat2)   Jackson, MS 213476  750 Herring Gas Cycling
DNFLiam Donoghue (Cat1)   Glen Ellyn Il 206188  762 Natural Grocers Cycl
DNFGrant Erhard (Cat2)   Saint Louis, MO 247652  772 Quantum Mesa Cycles
DNFBlake Romine (Cat2)   Boulder, CO 306442  784 Team Colavita Parisi
DNFAndrew Chocha (Cat1)   Shreveport, LA 78680  785 Team La'Sport
DNFStephen Mire (Cat1)   Covington, LA 281103  786 Team La'Sport
DNFGene Daniel (Cat2)   Tulsa, OK 335306  790 Team Soundpony
DNFGarrett Grow (Cat2)   Tulsa, OK 69669  791 Team Soundpony
DNFJohn Callahan (Cat2)   Terre Haute, IN 289458  793 Team Upland Brewing
DNFJohn Mcallister (Cat1)   Fort Worth, TX 206241  877 Think Finance p/b Tr
DNFAdam Mills (Cat1)   Lewisville, TX 102467  878 Think Finance p/b Tr
DNFChad Cagle (Cat1)   Tulsa, OK 141654  886 Tulsa Tough p/b ICEd

Women - Pro/Cat 1/2 - Nrc Stage

 Place Points NameCity, StateTime USAC #BibTeam
1133.41Joelle Numainville   Pescadero, CA00:00:00 334430  214 UCI CT/WPT: Team Optum p/b Kelly Benefit Strategies*
2137.29Mia Loquai (1 - Cat2)   Hastings, MN00:00:00 354752  264 ISCorp p/b Intelligentsia Coffee*
3141.17Claudia Haeusler   00:00:00 400516  224 UCI WPT: Team TIBCO/ To the Top*
4145.05Alison Powers   Pinecliffe, CO00:00:00 98704  201 NOW and Novartis for MS
5148.93Lauren Stephens   Dallas, TX00:00:00 288678  235 FCS|Zngine p/b Mr. Restore
6152.81Lex Albrecht   00:00:00 380330  203 NOW and Novartis for MS
7156.69Alexis Ryan (1 - Cat1)   Ventura, CA00:00:00 205156  208 NOW and Novartis for MS
8160.57Jessica Chong (2 - Cat1)   Allentown, PA00:00:00 303840  295 Morgan Stanley Cycling Team
9164.45Shelley Olds (1 - Pro)   Gilroy, CA00:00:00 226087  228 Team Tibco
10168.33Amber Gaffney (2 - Pro)   Claremont, CA00:00:00 349836  212 Optum p/b Kelly Benefit Strate
11172.21Lorena Vargas   Minneapolis, MN00:00:00 405286  266 ISCorp p/b Intelligentsia Coff
12176.09Amity Elliot (3 - Cat1)   Boulder, CO00:00:00 222471  243 Team Kenda p/b RACC
13179.97Joy McCulloch (2 - Cat2)   Yucaipa, CA00:00:00 218863  292 CashCall Mortgage
14183.85Anna Sanders   Phoenix, AZ00:00:00 279796  234 FCS|Zngine p/b Mr. Restore
15187.73Joanne Kiesanowski   Colorado Springs, CO00:00:00 406658  225 Team Tibco
16191.61Courteney Lowe   Asheville, NC00:00:00 379339  213 Optum p/b Kelly Benefit Strate
17195.49Robin Farina   Smartsville, CA00:00:00 205968  205 NOW and Novartis for MS
18199.37Michelle Hayner (4 - Cat1)   Austin, TX00:00:00 355384  297 Velossimo Racing
19203.25Maura Kinsella (5 - Cat1)   Boulder, CO00:00:00 289951  206 NOW and Novartis for MS
20207.13Chantal Blaak   00:00:00 400868  221 Team Tibco
21211.01Irena Ossola (3 - Cat2)   Santa Fe Nm00:00:05 392698  247 Team Kenda p/b RACC
22214.89Brianna Walle (3 - Pro)   Portland, OR00:00:07 353542  215 Optum p/b Kelly Benefit Strate
23218.77Lauren Komanski (4 - Cat2)   Winston Salem, NC00:00:11 365266  207 NOW and Novartis for MS
24222.65Jasmin Glaesser   00:00:25 400540  223 Team Tibco
25226.53Rushlee Buchanan   Petaluma, CA00:00:25 349204  222 Team Tibco
26230.41Kathryn Donovan   Oxnard, CA00:00:28 266674  202 NOW and Novartis for MS
27234.29Kim Jennings (6 - Cat1)   Waco, TX00:01:23 222697  271 Jubilee Subaru
28238.17Olivia Dillon   Fairfax, CA00:01:33 232172  204 NOW and Novartis for MS
29242.05Kaelly Farnham (5 - Cat2)   Santa Rosa00:01:33 290436  232 FCS|Zngine p/b Mr. Restore
30245.93Valentina Paniagua   Milwaukee, WI00:02:36 395163  265 ISCorp p/b Intelligentsia Coff
31249.81Lauren De Crescenzo (6 - Cat2)   Boulder , CO00:11:47 310650  241 Team Kenda p/b RACC
32253.69Christina Birch (7 - Cat2)   Somerville, MA00:11:47 294746  251 I AM Racing
33257.57Amy Mcguire   Jamaica Plain, MA00:11:47 221594  233 FCS|Zngine p/b Mr. Restore
34261.45Nicole Mitchell   00:16:57 399658  298 Winner'sEdge
35265.33Pamela Tate (8 - Cat2)   Cordova, TN00:16:57 153533  253 I AM Racing
36269.21Amanda Miller (4 - Pro)   Fort Collins, CO00:16:57 228513  226 Team Tibco
37273.09Merideth Miller (5 - Pro)   Boulder, CO00:18:03 143575  227 Team Tibco
38276.97Sierra Siebenlist (7 - Cat1)   Indianapolis, IN00:18:03 166038  296 Team Indiebike.com Angies List
39280.85Lindsey Durst (9 - Cat2)   Saint Charles, MO00:18:03 270694  231 FCS|Zngine p/b Mr. Restore
40284.73Lauren Creamer   Menomonee Falls, WI00:21:33 394821  261 ISCorp p/b Intelligentsia Coff
41288.61Hayley Giddens   Wanganui 00:21:33 380901  262 ISCorp p/b Intelligentsia Coff
42292.49Michelle Montoya (10 - Cat2)   Allen, TX00:21:33 191931  272 Jubilee Subaru
43296.37Terra James (11 - Cat2)   Minneapolis , MN00:30:14 281803  244 Team Kenda p/b RACC
44300.25Jennifer Herrell-Rhoades (12 - Cat2)   Kansas City, MO00:30:14 243849  291 BOT p/b McNeele's Group
45304.13Nichole Tower (13 - Cat2)   Birmingham, AL00:30:14 294814  254 I AM Racing
DNSLouise Smyth (Cat1)   Houston, TX 286102  293 Grim Reaper Clique
DNFGabrielle Pilote     245 Team Kenda p/b RACC
DNFKailin Acheson (Cat2)   Brentwood, TN 274816  281 Team Belladium
DNFKatherine Williams (Cat1)   Franklin, TN 297005  282 Team Belladium

Report missing or incorrect license numbers

Volkswagen
Bonk BreakerUSACDFCUORESpyShimanoSierra Nevada
UCI USA Cycling is the official governing body for all disciplines of competitive cycling in the United States. The 501c3, membership-based organization aims both to achieve sustained success in international cycling competition and to grow competitive cycling in America while delivering an exceptional customer experience.
View Children's Online Privacy Protection Policy
US Olympic Committee